2020-079N (46839 NORAD) Tracking and Keplerian Element Data

This shows tracking and keplerian element data for the satellite.

Feedback or suggestion? Click here.




ElementValue
Catalog46839
Name2020-079N
Epoch Orbit305
Epoch Day331.11752309
Epoch Year2020
RAAN42.9538
Inclination97.2631
Eccentricity0.0006797
Argument of Perigee203.0493
Mean Anonmoly244.9505
Mean Motion15.3225782
Decay Rate4.837E-05
L11 46839U 20079N 20331.11752309 .00004837 00000-0 15769-3 0 9998
L22 46839 97.2631 42.9538 0006797 203.0493 244.9505 15.32257820 3053

Live tracking and technical data element details for 2020-079N (NORAD 46839). 2020-079N can be tracked NOW for your location showing map with azimuth and elevation plus other details from your city location.

Track the satellite on the map from your city or location and see movement details for azimuth, elevation, latitude, longitude, range, height, and movement on the map or in text.







IsCatalogInMostPopularTable: catalog: 46839, numindb: 4
Update: records affected: 1



GetName: 46839 2020-079N

Hit Count: updated at: Thu, 26 Nov 2020 17:44:12 GMT